Regional Weather Roundup
Issued by NWS Wakefield, VA

Home | Current Version | Previous Version | Text Only | Print | Product List | Glossary Off
Versions: 1 2 3 4 5 6 7 8 9 10 11 12 13 14 15 16 17 18 19 20 21 22 23 24 25 26 27 28 29 30 31 32 33 34 35 36 37 38 39 40 41 42 43 44 45 46 47 48 49 50

000
ASUS41 KAKQ 170810
RWRAKQ

REGIONAL WEATHER ROUNDUP
NATIONAL WEATHER SERVICE WAKEFIELD VA
400 AM EDT WED SEP 17 2014

Note: "fair" indicates few or no clouds below 12,000 feet with no
significant weather and/or obstructions to visibility. * = Denotes
station may not report precipitation (e.g., rain,snow,etc.),
thunder or fog.

VAZ042-051-052>054-056-170900-
NORTHERN VIRGINIA

CITY           SKY/WX    TMP DP  RH WIND       PRES   REMARKS
WASH NATIONAL  PTCLDY    60  51  72 NW6       30.04F
DULLES         CLEAR     51  49  92 NW3       30.05F
FORT BELVOIR   CLEAR     54  52  92 NW1       30.04F
QUANTICO       CLEAR     57  52  83 NW9       30.04F
FREDERICKSBRG* CLEAR     55  55  99 CALM      30.02F
STAFFORD*      CLEAR     52  52 100 CALM      30.07F
WARRENTON      CLEAR     48  48 100 CALM      30.04S
CULPEPER*      CLEAR     54  52  94 N3        30.05S
MANASSAS*      CLEAR     50  50 100 CALM      30.05S
LEESBURG*      CLEAR     50  50 100 CALM      30.06S
WINCHESTER     CLEAR     48  45  87 CALM      30.06S
FRONT ROYAL*   MOSUNNY   48  46  93 CALM      30.06F
LURAY*         MOSUNNY   50  50 100 CALM      30.06F
$$

VAZ048-049-060>072-079>083-170900-
CENTRAL AND SOUTH CENTRAL VIRGINIA...AND NORTH CENTRAL NORTH CAROLINA

CITY           SKY/WX    TMP DP  RH WIND       PRES   REMARKS
RICHMOND       MOCLDY    63  56  78 N6        30.01S
CHESTERFIELD*  CLOUDY   N/A N/A N/A N3        30.02S
PETERSBURG*    CLOUDY    65  57  75 CALM      30.01F
HANOVER        MOCLDY    59  56  89 CALM      30.04S
TAPPAHANNOCK*  PTCLDY    59  56  89 CALM      30.02S
CHARLOTTSVILLE CLEAR     56  51  84 CALM      30.05R
ORANGE*        CLEAR     54  50  87 CALM      30.06S
LOUISA*        MOCLDY    57  52  82 CALM      30.03S
FARMVILLE*     CLOUDY    63  54  72 N7        30.00F
CREWE*         CLOUDY    65  58  76 N3        30.01F
FORT PICKETT*  CLOUDY    64  58  83 CALM      30.02R
LUNENBURG*     CLOUDY    64  59  83 N5        30.00F
SOUTH HILL*    CLOUDY    68  64  88 N3        30.04F
LAWRENCEVILLE* CLOUDY    66  62  89 CALM      29.99S
ROANOKE RAPIDS CLOUDY    64  63  94 N3        29.97F
RALEIGH        CLOUDY    69  65  86 N3        29.96F
$$

VAZ088>098-170900-
SOUTHEAST VIRGINIA

CITY           SKY/WX    TMP DP  RH WIND       PRES   REMARKS
NORFOLK        CLOUDY    70  62  76 NE9       29.97F
VIRGINIA BEACH CLOUDY    71  62  73 NE10      29.96F
NORFOLK NAVAL  CLOUDY    71  61  70 NE12      29.99S
WEST POINT*    CLOUDY    66  59  79 CALM      30.02S
NEWPORT NEWS   CLOUDY    70  63  78 CALM      29.99F
LANGLEY AFB    CLOUDY    68  63  84 NE8       29.98S
FORT EUSTIS    CLOUDY    67  67 100 NE5       29.97F
WILLIAMSBURG*  CLOUDY    70  63  78 CALM      30.00F
HR EXEC AP*    CLOUDY    66  61  82 NE3       29.99F
FRANKLIN*        N/A     66  61  82 N6        29.97F
WAKEFIELD      CLOUDY    66  62  87 CALM      29.99F
$$

VAZ020-022-025-037-045-170900-
WEST CENTRAL AND SOUTHWEST VIRGINIA

CITY           SKY/WX    TMP DP  RH WIND       PRES   REMARKS
STAUNTON*      CLEAR     52  48  84 CALM      30.09R
HOT SPRINGS VA MOCLDY    50  35  56 E5        30.12F
LYNCHBURG      PTCLDY    61  51  70 N7        30.05F
DANVILLE       MOCLDY    65  58  78 NE9       30.00F
SOUTH BOSTON*  NOT AVBL
MARTINSVILLE   PTCLDY    61  60  98 N3        30.05F
ROANOKE        CLOUDY    63  53  70 NE5       30.07R
BLACKSBURG     PTCLDY    57  57 100 CALM      30.08F
DUBLIN*        MOCLDY    56  56  99 CALM      30.07F
MARION*        PTCLDY    56  55  95 CALM      30.09F FOG
HILLSVILLE*    CLOUDY    56  54  93 CALM      30.07R
RICHLANDS*     SUNNY     58  56  94 CALM      30.06F FOG
WISE*          CLOUDY    55  55 100 N5        30.08F FOG
ABINGDON*      PTCLDY    60  57  89 E5        30.04F
$$

MDZ021>025-VAZ099-100-170900-
SOUTHERN MARYLAND AND THE DELMARVA PENINSULA

CITY           SKY/WX    TMP DP  RH WIND       PRES   REMARKS
PATUXENT RIVER PTCLDY    62  55  77 NE5       30.01F
BAY BRIDGE APT   N/A     61  54  77 NE3       30.03S
LEONARDTOWN    MOCLDY    57  54  88 CALM      30.03F
DOVER          CLEAR     54  54  99 N6        30.00F
GEORGETOWN     PTCLDY    57  53  86 CALM      30.03R
EASTON         CLEAR     58  57  97 CALM      30.06S
CAMBRIDGE      PTCLDY    55  52  88 CALM      30.02S
SALISBURY      PTCLDY    60  55  83 CALM      30.01S
OCEAN CITY     PTCLDY    59  56  89 CALM      30.01S
WALLOPS ISLAND MOCLDY    61  57  87 N7        30.01S
ACCOMACK*      CLOUDY    61  55  82 CALM      30.00S
$$

NCZ012>017-030>032-170900-
EASTERN NORTH CAROLINA

CITY           SKY/WX    TMP DP  RH WIND       PRES   REMARKS
ELIZABETH CITY CLOUDY    70  65  84 NE6       29.95F
AHOSKIE*       CLOUDY    66  63  89 N5        29.97S
EDENTON*       CLOUDY    68  66  92 N3        29.96
CURRITUCK*     CLOUDY    73  61  66 NE3       29.96F
KILL DEVIL HLS CLOUDY    73  64  75 NE5       29.94S
MANTEO         CLOUDY    71  65  80 NE7       29.95S
CAPE HATTERAS  MOCLDY    69  67  93 NE7       29.92F
TARBORO*       CLOUDY    68  65  89 N3        29.96F
GOLDSBORO      CLOUDY    69  69  98 CALM      29.92F
WASHINGTON     CLOUDY    68  65  88 NE3       29.95R
GREENVILLE     CLOUDY    70  64  83 NE7       29.96S
NEW BERN       LGT RAIN  74  70  87 E3        29.92F
WILMINGTON     CLOUDY    68  67  96 N8        29.91F
$$

VAZ048-170900-
ELSEWHERE

CITY           SKY/WX    TMP DP  RH WIND       PRES   REMARKS
HARRISBURG PA  PTCLDY    54  50  86 CALM      30.04F
BALTIMORE      CLEAR     53  50  89 CALM      30.03S
ANNAPOLIS      CLEAR     62  59  90 N5        30.02F
ANDREWS AFB    CLEAR     55  52  88 N3        30.03F
WILMINGTON DE  PTCLDY    54  52  93 NW3       30.04S
PHILADELPHIA   CLEAR     57  50  77 NW6       30.03F
WILDWOOD NJ*   CLEAR     55  50  82 N3        30.03S
ATLANTIC CITY  CLEAR     52  50  93 NW3       30.02S
HENDERSON NC   CLOUDY    65  61  85 NE6       29.99S
GREENSBORO     PTCLDY    64  62  93 N5        29.98F
ROCKY MOUNT    CLOUDY    68  65  90 N6        29.95F
FAYETTEVILLE   CLOUDY    66  65  96 W3        29.94F
CHARLOTTE      PTCLDY    64  62  93 N5        29.98F
$$

VAZ100-170900-
MARINE

STATION/POSITION TIME  TEMP    WIND        PRES    WAVE   SWELL
                       AIR SEA DIR/SP/G            HT/PER HT/PER
                 (UTC) (F)     (DEG/KT/KT) (MB)    (FT/S) (FT/S)
44066 TX TWR #4  0800   67 74   10/ 12/ 14 1015.2F   3/14   3/14
CAPE MAY NJ      0800   60 76   40/  4/  6 1015.9R
LEWES DE         0800   67 72   30/ 13/ 15 1016.2R
15NM E FENWICK I 0800   69 72              1015.5R   2/12
OCEAN-CITY-INLET 0800   65 72  330/  5/  6 1015.5R
WACHAPREAGUE VA  0800   64 75  340/  3/  4 1015.8R
THOMAS POINT MD  0800   65 74   60/  9/ 10 1017.6F
GOOSES REEF MD   0800   68      70/ 10/ 14 1016.8S
COVE POINT MD    0800   66      50/  8/ 10 1016.2F
SOLOMONS ISLAND  0800      76                N/A
BISHOPS HEAD MD  0800   65 72   20/  6/  9 1015.6S
PINEY POINT MD   0800           50/  5/  6   N/A
POTOMAC MD       0800   69      50/  8/ 12 1015.4F
CAMBRIDGE MD     0800   63 75   40/  4/  5 1016.2F
LEWISETTA VA     0800   69 73   40/  9/ 13 1015.6F
RAPPAHANNOCK LGT 0800           30/ 13/ 14 1016.0F
STINGRAY PT      0800   71      50/ 12/ 14   N/A
YORK RVR RNG VA  0800   72      70/ 13/ 15 1015.1S
YORKTOWN VA      0800   71 77   40/ 11/ 13 1015.3R
JAMESTOWN VA     0800   68      70/  4/  4   N/A
DOMINION TERM VA 0800   71      30/  4/  9 1015.2S
KIPTOPEKE VA     0800      79   70/  4/  6   N/A
CHES BAY BRIDGE  0800   71 76   30/ 10/ 14 1014.8R
CAPE HENRY VA    0800   71      50/ 14/ 16 1013.9S
CHESAPEAKE LGHT  0700   71      60/ 14/ 14 1016.0R
WILLOUBY STN VA  0800   71      50/ 12/ 13 1013.9F
S CRANEY ISL VA  0800           20/ 11/ 13 1014.7S
CAPE HENRY BUOY  0800      75                N/A     3/14   2/14
1ST LANDING BUOY 0800   71      50/ 12/ 16 1014.9S
CAPE CHARLES BUO 0800      75                N/A     3/13   3/13
OFFSHORE WE BUOY 0800      74                N/A     3/13   3/13
64NM E OF VA BCH 0800   74 77   60/ 12/ 14 1014.0F   3/12   2/12
DUCK PIER NC     0800   74 77   60/ 11/ 12 1013.8R
44100 DUCK FRF   0800      75                N/A     3/17   2/17
44056 DUCK FRF   0700                        N/A     3/14   2/14
OREGON INLET NC  0800   74 76   50/  8/ 11 1013.8F
HATTERAS NC      0800   74 80   50/  6/  9 1013.9F
DIAMOND SHLS NC  0800   76      20/ 10/ 14 1013.0F   3/14   3/14
CAPE LOOKOUT NC  0700   72     290/  4/  7 1013.3F
$$


USA.gov is the U.S. government's official web portal to all federal, state and local government web resources and services.